TimeEST,TemperatureF,Dew PointF,Humidity,Sea Level PressureIn,VisibilityMPH,Wind Direction,Wind SpeedMPH,Gust SpeedMPH,PrecipitationIn,Events,Conditions,WindDirDegrees,DateUTC
12:17 AM,7.7,-0.4,70,30.28,10.0,South,9.2,-,N/A,,Overcast,190,2013-01-25 05:17:00
12:37 AM,7.7,-0.4,70,30.28,10.0,SSW,9.2,-,N/A,,Overcast,200,2013-01-25 05:37:00
12:57 AM,7.7,0.1,71,30.27,7.0,SSW,9.2,-,N/A,Snow,Light Snow,200,2013-01-25 05:57:00
1:17 AM,7.5,0.7,74,30.25,4.0,SSW,9.2,-,N/A,Snow,Light Snow,200,2013-01-25 06:17:00
1:36 AM,6.8,3.2,85,30.24,1.2,SSW,10.4,-,N/A,Snow,Light Snow,210,2013-01-25 06:36:00
1:57 AM,7.2,3.2,84,30.22,1.8,SSW,9.2,-,N/A,Snow,Light Snow,210,2013-01-25 06:57:00
2:17 AM,7.2,3.2,84,30.21,2.5,SSW,9.2,-,N/A,Snow,Light Snow,210,2013-01-25 07:17:00
2:37 AM,7.3,3.6,85,30.19,2.0,SSW,6.9,-,N/A,Snow,Light Snow,210,2013-01-25 07:37:00
2:57 AM,7.3,3.7,85,30.18,4.0,South,9.2,-,N/A,Snow,Light Snow,190,2013-01-25 07:57:00
3:16 AM,7.5,3.9,85,30.17,4.0,South,8.1,-,N/A,Snow,Light Snow,190,2013-01-25 08:16:00
3:37 AM,7.5,3.7,85,30.16,4.0,SSW,9.2,-,N/A,Snow,Light Snow,200,2013-01-25 08:37:00
3:57 AM,7.5,3.7,85,30.15,4.0,SSW,9.2,-,N/A,Snow,Light Snow,200,2013-01-25 08:57:00
4:16 AM,7.7,3.9,85,30.14,3.0,South,10.4,-,N/A,Snow,Light Snow,190,2013-01-25 09:16:00
4:37 AM,7.7,4.1,85,30.12,2.0,SSW,8.1,-,N/A,Snow,Light Snow,200,2013-01-25 09:37:00
4:57 AM,7.7,4.3,86,30.11,4.0,SSW,8.1,-,N/A,Snow,Light Snow,200,2013-01-25 09:57:00
5:16 AM,7.7,4.1,85,30.09,10.0,SSW,6.9,-,N/A,,Overcast,200,2013-01-25 10:16:00
5:37 AM,7.7,4.3,86,30.08,7.0,SSW,8.1,-,N/A,Snow,Light Snow,200,2013-01-25 10:37:00
5:57 AM,7.7,4.5,87,30.06,4.0,South,9.2,-,N/A,Snow,Light Snow,190,2013-01-25 10:57:00
6:50 AM,8.6,5.0,85,30.02,3.0,South,11.5,-,N/A,Snow,Light Snow,190,2013-01-25 11:50:00
7:50 AM,8.6,6.8,92,29.99,3.0,South,9.2,-,N/A,Snow,Light Snow,190,2013-01-25 12:50:00
8:50 AM,10.4,10.4,100,29.97,1.8,South,11.5,-,N/A,Snow,Light Snow,180,2013-01-25 13:50:00
9:20 AM,10.4,6.8,85,29.96,3.0,South,9.2,-,N/A,Snow,Light Snow,180,2013-01-25 14:20:00
9:48 AM,10.4,6.8,85,29.94,1.5,South,8.1,-,N/A,Snow,Light Snow,180,2013-01-25 14:48:00
10:01 AM,10.4,6.8,85,29.94,1.2,South,6.9,-,N/A,Snow,Light Snow,190,2013-01-25 15:01:00
10:55 AM,12.2,-9999,N/A,29.93,1.2,South,8.1,-,N/A,Snow,Light Snow,190,2013-01-25 15:55:00
11:50 AM,14.0,10.4,86,29.90,3.0,South,8.1,-,N/A,Snow,Light Snow,190,2013-01-25 16:50:00
12:50 PM,15.8,10.4,79,29.87,1.5,South,5.8,-,N/A,Snow,Light Snow,190,2013-01-25 17:50:00
1:50 PM,15.8,10.4,79,29.85,2.0,SW,5.8,-,N/A,Snow,Light Snow,220,2013-01-25 18:50:00
2:46 PM,15.8,8.6,73,29.84,7.0,Calm,Calm,-,N/A,,Mostly Cloudy,0,2013-01-25 19:46:00
3:50 PM,15.8,10.4,79,29.86,10.0,Calm,Calm,-,N/A,,Overcast,0,2013-01-25 20:50:00
4:50 PM,15.8,10.4,79,29.89,2.0,Calm,Calm,-,N/A,Snow,Light Snow,0,2013-01-25 21:50:00
5:55 PM,14.0,12.2,93,29.92,7.0,Calm,Calm,-,N/A,,Overcast,0,2013-01-25 22:55:00
6:50 PM,12.2,10.4,92,29.92,10.0,Calm,Calm,-,N/A,,Clear,0,2013-01-25 23:50:00
7:55 PM,6.8,5.0,92,29.94,10.0,West,3.5,-,N/A,,Mostly Cloudy,270,2013-01-26 00:55:00
8:50 PM,8.6,6.8,92,29.94,10.0,Calm,Calm,-,N/A,,Overcast,0,2013-01-26 01:50:00
9:50 PM,12.2,8.6,85,29.96,10.0,Calm,Calm,-,N/A,,Overcast,0,2013-01-26 02:50:00
10:17 PM,13.1,9.5,86,29.96,5.0,West,4.6,-,N/A,Snow,Light Snow,280,2013-01-26 03:17:00
10:37 PM,13.5,10.0,86,29.96,7.0,WNW,6.9,-,N/A,Snow,Light Snow,290,2013-01-26 03:37:00
10:56 PM,13.8,10.4,86,29.96,7.0,WNW,6.9,-,N/A,Snow,Light Snow,290,2013-01-26 03:56:00
11:17 PM,14.0,10.4,86,29.96,10.0,WNW,6.9,-,N/A,,Overcast,300,2013-01-26 04:17:00
11:37 PM,14.9,11.1,85,29.97,10.0,WNW,8.1,-,N/A,,Overcast,290,2013-01-26 04:37:00
11:56 PM,15.4,11.3,84,29.97,10.0,WNW,8.1,-,N/A,,Overcast,290,2013-01-26 04:56:00